Location: *
(45.1961°N, 1.9694°E)
Time: 00:21:28
(UTC+00:00)

Cosmos 1867 - Pass Details

Date: 25 August 2019
Orbit: 775 x 801 km, 65.0° (Epoch: 20 September)

Event Time Altitude Azimuth Distance (km) Brightness Sun altitude
Rises 21:41:56 0° 324° (NW) 3,317 8.1 -26.7°
Reaches altitude 10° 21:44:23 10° 324° (NW) 2,382 7.0 -27.0°
Enters shadow 21:49:45 85° 295° (WNW) 806 3.5 -27.5°
